Regional Weather Roundup
Issued by NWS

Home | Current Version | Previous Version | Text Only | Print | Product List | Glossary Off
Versions: 1 2 3 4 5 6 7 8 9 10 11 12 13 14 15 16 17 18 19 20 21 22 23 24 25 26 27 28 29 30 31 32 33 34 35 36 37 38 39 40 41 42 43 44 45 46 47 48 49 50

094
ASUS45 KCYS 310510
RWRWY

WYOMING REGIONAL WEATHER ROUNDUP
NATIONAL WEATHER SERVICE CHEYENNE WY
1100 PM MDT SAT JUL 30 2016

NOTE:  "FAIR" INDICATES FEW OR NO CLOUDS BELOW 12,000 FEET
WITH NO SIGNIFICANT WEATHER AND/OR OBSTRUCTIONS TO VISIBILITY.

WYZ001-310600-
YELLOWSTONE NATIONAL PARK

CITY           SKY/WX    TMP DP  RH WIND       PRES   REMARKS
LK YELLOWSTONE   N/A     53  42  66 CALM      30.16S
W YELLOWSTONE  NOT AVBL

$$
WYZ002>013-054>058-071-098>099-310600-
NORTHERN WYOMING

CITY           SKY/WX    TMP DP  RH WIND       PRES   REMARKS
JACKSON        FAIR      61  48  63 SW5       30.09R
CODY           FAIR      72  46  40 S5        29.90F
GREYBULL       FAIR      77  43  29 NW3       29.79S
WORLAND        FAIR      74  46  36 SW5       29.82R
SHERIDAN       FAIR      69  52  54 S5        29.79F
BUFFALO        FAIR      72  47  40 W7        29.89F
GILLETTE       FAIR      67  55  65 S7        29.84R
HULETT         FAIR      68  52  56 S8        29.84S
NEWCASTLE      FAIR      72  52  49 E21G26    29.86F

$$
WYZ014>020-022>026-101>103-310600-
CENTRAL WYOMING

CITY           SKY/WX    TMP DP  RH WIND       PRES   REMARKS
BIG PINEY      FAIR      57  45  64 MISG      30.15R
PINEDALE       FAIR      61  37  41 CALM      30.16S
DUBOIS         MOCLDY    68  34  28 W22G31    30.11F
LANDER         FAIR      77  41  27 SW20      29.97R
RIVERTON       FAIR      74  40  29 W8        29.96R
CASPER         FAIR      72  40  31 SW9       29.92R
DOUGLAS        FAIR      78  39  24 N7        29.89R

$$
WYZ021-027>030-104>119-310600-
SOUTHERN WYOMING

CITY           SKY/WX    TMP DP  RH WIND       PRES   REMARKS
EVANSTON       FAIR      66  42  41 W7        30.17R
KEMMERER         N/A    N/A N/A N/A SW3       30.17S
FORT BRIDGER   FAIR      65  44  46 S6        30.17S
ROCK SPRINGS   FAIR      68  42  38 SW12      30.12S
DIXON          FAIR      62  44  50 SE3       30.15R
RAWLINS        FAIR      71  38  29 W10       30.10S
SARATOGA       FAIR      63  37  39 SE10      30.13S
LARAMIE        FAIR      63  41  44 S12       30.14S
CHEYENNE       FAIR      68  58  70 SE7       30.07F
TORRINGTON     FAIR      74  60  61 SE12      29.88F

$$




USA.gov is the U.S. government's official web portal to all federal, state and local government web resources and services.